Regional Weather Roundup
Issued by NWS Kansas City/Pleasant Hill, MO

Home | Current Version | Previous Version | Graphics & Text | Print | Product List | Glossary Off
Versions: 1 2 3 4 5 6 7 8 9 10 11 12 13 14 15 16 17 18 19 20 21 22 23 24 25 26 27 28 29 30 31 32 33 34 35 36 37 38 39 40 41 42 43 44 45 46 47 48 49 50

066
ASUS43 KEAX 300810
RWREAX

WEATHER ROUNDUP FOR EASTERN KANSAS AND NORTHWEST MISSOURI
NATIONAL WEATHER SERVICE KANSAS CITY/PLEASANT HILL MO
300 AM CDT MON MAY 30 2016

KSZ040-057-103>105-MOZ028-029-037-043-300900-
...KANSAS CITY METROPOLITAN AREA...

CITY           SKY/WX    TMP DP  RH WIND       PRES   REMARKS
K.C. INTL      CLOUDY    65  59  81 S6        30.02F
K.C. DOWNTOWN  CLEAR     68  62  81 CALM      30.01F
LEES SUMMIT    CLEAR     68  61  78 S3        30.03F
OLATHE - IXD   CLEAR     63  61  93 S3        30.03F
OLATHE - OJC   CLEAR     65  60  84 CALM      30.03F
LAWRENCE       CLEAR     61  60  97 N3        30.02F

$$

MOZ001>008-011>017-020>025-030>033-038>040-044>046-053-054-300900-
...NORTHERN AND CENTRAL MISSOURI...

CITY           SKY/WX    TMP DP  RH WIND       PRES   REMARKS
ST. JOSEPH     CLOUDY    65  61  87 CALM      30.02S
MOSBY          CLOUDY    63  63 100 CALM      30.02F
WARRENSBURG    CLEAR     63  61  94 CALM      30.02F
WHITEMAN AFB   PTCLDY    66  66  99 S3        30.02F
CLINTON        CLEAR     66  64  94 CALM      30.03F
SEDALIA        CLEAR     67  62  84 S6        30.04F
WARSAW         NOT AVBL
CHILLICOTHE      N/A     65  63  93 CALM      30.03F
KIRKSVILLE     CLOUDY    66  61  84 SW3       30.04F

$$

MOZ041-047>049-056>058-063>065-088>090-097-300900-
...EASTERN AND SOUTHERN MISSOURI...

CITY           SKY/WX    TMP DP  RH WIND       PRES   REMARKS
ST. LOUIS INTL CLOUDY    72  60  66 W3        30.05F
SPIRIT OF STL  MOCLDY    64  62  93 CALM      30.04F
COLUMBIA       CLEAR     68  62  81 S5        30.04F
JEFFERSON CITY CLEAR     64  63  96 CALM      30.04F
ROLLA          CLEAR     64  60  87 S7        30.05F
SPRINGFIELD    PTCLDY    67  62  84 S7        30.06F
JOPLIN         PTCLDY    64  63  96 E3        30.05F
WEST PLAINS    CLEAR     63  59  87 CALM      30.08F

$$

IAZ060-094-KSZ022-034>040-054-083-096-NEZ052-066-093-300900-
...KANSAS...SOUTHEAST NEBRASKA AND IOWA...

CITY           SKY/WX    TMP DP  RH WIND       PRES   REMARKS
TOPEKA         CLEAR     64  62  93 CALM      30.02F
MANHATTAN      CLEAR     61  59  93 N5        30.02S
EMPORIA        CLEAR     63  62  97 CALM      30.03F
CHANUTE        CLEAR     65  63  93 SE6       30.03F
WICHITA        MOCLDY    68  61  78 CALM      30.01F
OMAHA          CLOUDY    69  60  73 SE6       29.99S
LINCOLN        MOCLDY    67  58  72 CALM      29.99F
FALLS CITY     PTCLDY    66  63  90 S3        30.00F
LAMONI         CLOUDY    65  61  87 S7        30.01F
DES MOINES     CLOUDY    70  59  68 CALM      30.00S

$$





USA.gov is the U.S. government's official web portal to all federal, state and local government web resources and services.